This demonstration page uses our WeatherBlox Daily Observations layout. Learn more.

Left ArrowRight Arrow

Hourly Observations for April 19, 2022

Temp ( °F °C ) Dew Point ( °F °C ) Humidity (%) Winds ( mph kmh ) Pressure ( in mb ) Visibility ( mi km ) Precip ( " mm )
12:15 am 00:15 Clear 35 1.7 11 -11.7 37 37 SE 8 13 30.31 1026 10 16 0.00 0.00
12:35 am 00:35 Clear 36 2.1 12 -11.1 37 37 SSE 10 17 30.31 1026 10 16 0.00 0.00
12:55 am 00:55 Clear 34 1.1 12 -11.3 39 39 SE 8 13 30.31 1026 10 16 0.00 0.00
1:15 am 01:15 Clear 32 0.2 12 -11.3 42 42 ESE 8 13 30.31 1027 10 16 0.00 0.00
1:35 am 01:35 Clear 31 -0.5 11 -11.7 43 43 SE 6 9 30.31 1026 10 16 0.00 0.00
1:55 am 01:55 Clear 31 -0.5 12 -11.1 45 45 ESE 8 13 30.30 1026 10 16 0.00 0.00
2:15 am 02:15 Clear 31 -0.7 12 -11.2 45 45 ESE 8 13 30.30 1026 10 16 0.00 0.00
2:35 am 02:35 Clear 30 -0.9 12 -11.2 46 46 ESE 7 11 30.29 1026 10 16 0.00 0.00
2:55 am 02:55 Clear 30 -0.9 13 -10.7 48 48 SE 6 9 30.27 1025 10 16 0.00 0.00
3:15 am 03:15 Clear 31 -0.3 13 -10.5 46 46 SE 9 15 30.26 1025 10 16 0.00 0.00
3:35 am 03:35 Clear 32 0 13 -10.4 46 46 SE 9 15 30.26 1025 10 16 0.00 0.00
3:55 am 03:55 Clear 32 0 13 -10.5 45 45 SE 8 13 30.25 1024 10 16 0.00 0.00
4:15 am 04:15 Clear 32 0.2 13 -10.5 45 45 SE 10 17 30.23 1024 10 16 0.00 0.00
4:35 am 04:35 Clear 33 0.6 13 -10.6 43 43 SE 12 19 30.23 1024 10 16 0.00 0.00
4:55 am 04:55 Clear 33 0.6 13 -10.6 43 43 SE 12 19 30.22 1023 10 16 0.00 0.00
5:15 am 05:15 Clear 32 0 13 -10.6 45 45 SE 9 15 30.23 1024 10 16 0.00 0.00
5:35 am 05:35 Clear 32 0.1 13 -10.6 45 45 SE 12 19 30.21 1023 10 16 0.00 0.00
5:55 am 05:55 Clear 33 0.3 13 -10.6 44 44 SE 13 20 30.21 1023 10 16 0.00 0.00
6:15 am 06:15 Clear 32 0 13 -10.5 45 45 SE 13 20 30.20 1023 10 16 0.00 0.00
6:35 am 06:35 Clear 32 0.1 13 -10.5 45 45 SE 12 19 30.18 1022 10 16 0.00 0.00
6:55 am 06:55 Sunny 32 0.1 13 -10.5 45 45 SE 13 20 30.16 1021 10 16 0.00 0.00
7:15 am 07:15 Sunny 33 0.5 14 -10.2 45 45 SE 15 24 30.16 1021 10 16 0.00 0.00
7:35 am 07:35 Sunny 34 0.9 14 -10.1 44 44 SE 14 22 30.16 1021 10 16 0.00 0.00
7:55 am 07:55 Sunny 35 1.8 14 -10 42 42 SE 14 22 30.15 1021 10 16 0.00 0.00
8:15 am 08:15 Sunny 37 3 15 -9.7 39 39 SSE 20 31 30.13 1020 10 16 0.00 0.00
8:35 am 08:35 Sunny 39 3.9 15 -9.2 38 38 SSE 17 28 30.11 1020 10 16 0.00 0.00
8:55 am 08:55 Sunny 42 5.6 15 -9.5 33 33 SSE 25 41 30.08 1019 10 16 0.00 0.00
9:15 am 09:15 Sunny 44 6.7 15 -9.7 30 30 SSE 24 39 30.06 1018 10 16 0.00 0.00
9:35 am 09:35 Sunny 46 7.8 14 -9.8 28 28 SSE 29 46 30.04 1017 10 16 0.00 0.00
9:55 am 09:55 Sunny 48 8.9 16 -9.1 27 27 S 28 44 30.01 1016 10 16 0.00 0.00
10:15 am 10:15 Mostly Cloudy 49 9.2 16 -8.7 28 28 S 29 46 30.00 1016 10 16 0.00 0.00
10:35 am 10:35 Cloudy 49 9.7 17 -8.5 27 27 S 28 44 29.98 1015 10 16 0.00 0.00
10:55 am 10:55 Partly Cloudy 51 10.4 17 -8.1 27 27 S 30 48 29.96 1015 10 16 0.00 0.00
11:15 am 11:15 Cloudy 51 10.8 18 -7.6 27 27 S 30 48 29.95 1014 10 16 0.00 0.00
11:35 am 11:35 Cloudy 53 11.8 21 -5.9 29 29 S 28 44 29.92 1013 10 16 0.00 0.00
11:55 am 11:55 Cloudy 55 12.7 23 -4.8 29 29 S 38 61 29.89 1012 10 16 0.00 0.00
12:15 pm 12:15 Cloudy 56 13.4 25 -4.1 30 30 S 35 56 29.87 1012 7 11 0.00 0.00
12:35 pm 12:35 Partly Cloudy 57 13.9 25 -3.9 29 29 S 37 59 29.86 1011 7 11 0.00 0.00
12:55 pm 12:55 Sunny 57 13.9 26 -3.5 30 30 S 31 50 29.84 1010 10 16 0.00 0.00
1:15 pm 13:15 Sunny 58 14.6 28 -2.5 31 31 S 37 59 29.82 1010 10 16 0.00 0.00
1:35 pm 13:35 Sunny 59 14.8 28 -2 32 32 S 31 50 29.79 1009 10 16 0.00 0.00
1:55 pm 13:55 Sunny 59 14.8 29 -1.4 33 33 S 29 46 29.78 1009 10 16 0.00 0.00
2:15 pm 14:15 Sunny 60 15.7 32 -0.2 34 34 S 35 56 29.75 1008 10 16 0.00 0.00
2:35 pm 14:35 Sunny 61 16.2 32 0 33 33 S 38 61 29.74 1007 10 16 0.00 0.00
2:55 pm 14:55 Sunny 60 15.6 33 0.6 36 36 S 31 50 29.73 1007 10 16 0.00 0.00
3:15 pm 15:15 Sunny 61 16.2 34 1 36 36 S 29 46 29.72 1006 10 16 0.00 0.00
3:35 pm 15:35 Sunny 63 17.2 34 1.1 34 34 SSE 32 52 29.69 1005 10 16 0.00 0.00
3:55 pm 15:55 Sunny 63 17.4 36 2 36 36 S 32 52 29.67 1005 10 16 0.00 0.00
4:15 pm 16:15 Sunny 63 17 36 2.1 37 37 S 31 50 29.66 1004 10 16 0.00 0.00
4:35 pm 16:35 Sunny 63 17.2 37 2.5 38 38 S 33 54 29.64 1004 10 16 0.00 0.00
4:55 pm 16:55 Sunny 62 16.7 36 2.3 38 38 S 31 50 29.65 1004 10 16 0.00 0.00
5:15 pm 17:15 Sunny 63 17.1 37 2.7 38 38 S 31 50 29.64 1004 10 16 0.00 0.00
5:35 pm 17:35 Sunny 63 17.3 37 3 39 39 S 29 46 29.64 1004 10 16 0.00 0.00
5:55 pm 17:55 Sunny 62 16.6 37 3 40 40 SSE 30 48 29.64 1004 10 16 0.00 0.00
6:15 pm 18:15 Sunny 62 16.5 38 3.2 41 41 S 31 50 29.64 1004 10 16 0.00 0.00
6:35 pm 18:35 Sunny 62 16.5 38 3.3 42 42 SSE 28 44 29.63 1003 10 16 0.00 0.00
6:55 pm 18:55 Sunny 61 16.1 38 3.6 43 43 SSE 31 50 29.63 1003 10 16 0.00 0.00
7:15 pm 19:15 Sunny 59 15 38 3.5 46 46 SSE 28 44 29.63 1003 10 16 0.00 0.00
7:35 pm 19:35 Sunny 58 14.7 38 3.4 47 47 SSE 24 39 29.63 1003 10 16 0.00 0.00
7:55 pm 19:55 Sunny 57 13.9 37 2.7 47 47 SSE 29 46 29.63 1003 10 16 0.00 0.00
8:15 pm 20:15 Sunny 56 13.5 37 2.9 49 49 SSE 26 43 29.63 1003 10 16 0.00 0.00
8:35 pm 20:35 Clear 55 13 37 3 51 51 SSE 23 37 29.64 1004 10 16 0.00 0.00
8:55 pm 20:55 Clear 55 12.5 37 3 53 53 SSE 23 37 29.63 1003 10 16 0.00 0.00
9:15 pm 21:15 Clear 54 12 37 2.8 54 54 SSE 24 39 29.64 1004 10 16 0.00 0.00
9:35 pm 21:35 Clear 53 11.6 38 3.1 56 56 SSE 22 35 29.65 1004 10 16 0.00 0.00
9:55 pm 21:55 Clear 52 11.2 36 2.2 54 54 SSE 24 39 29.65 1004 10 16 0.00 0.00
10:15 pm 22:15 Clear 50 9.8 32 0 51 51 SSE 26 43 29.66 1005 10 16 0.00 0.00
10:35 pm 22:35 Clear 49 9.4 32 0 52 52 SSE 22 35 29.67 1005 10 16 0.00 0.00
10:55 pm 22:55 Clear 48 9 32 0.1 54 54 SSE 22 35 29.66 1004 10 16 0.00 0.00
11:15 pm 23:15 Clear 48 9 33 0.5 56 56 SSE 20 31 29.66 1004 10 16 0.00 0.00
11:35 pm 23:35 Partly Cloudy 48 9 34 1 58 58 SSE 18 30 29.65 1004 10 16 0.00 0.00
11:55 pm 23:55 Mostly Cloudy 48 9 34 1.2 58 58 SSE 22 35 29.64 1004 10 16 0.00 0.00

Powered by AerisWeather